Weather History for KM63 - April, 2014

Change the Weather History Date:

Wednesday, April 23, 2014

  Actual Average Record
Temperature  
Mean Temperature 74 °F -  
Max Temperature 82 °F - - ()
Min Temperature 66 °F - - ()
Cooling Degree Days 10    
Growing Degree Days 24 (Base 50)    
Moisture  
Dew Point 20 °F    
Average Humidity 13    
Maximum Humidity 21    
Minimum Humidity 8    
Precipitation  
Precipitation 0.00 in - - ()
Sea Level Pressure  
Sea Level Pressure 29.70 in    
Wind  
Wind Speed 17 mph (South)    
Max Wind Speed 34 mph    
Max Gust Speed 44 mph    
Visibility 12 miles    
Events      
Averages and records for this station are not official NWS values.
T = Trace of Precipitation, MM = Missing Value Source: NWS Daily Summary

Daily Weather History Graph

Daily Weather History Graph

Search for Another Location

Airport or City:

Trip Planner

Search our weather history database for the weather conditions in past years. The results will help you decide how hot, cold, wet, or windy it might be!

Date:

Astronomy

Apr. 23, 2014 Rise Set
Actual Time 6:26 AM MDT 7:39 PM MDT
Civil Twilight 6:01 AM MDT 8:05 PM MDT
Nautical Twilight 5:30 AM MDT 8:35 PM MDT
Astronomical Twilight 4:59 AM MDT 9:07 PM MDT
Moon 2:38 AM MDT (4/23) 2:11 PM MDT (4/23)
Length of Visible Light 14h 04m
Length of Day
13h 12m
Waning Crescent, 34% of the Moon is Illuminated
Apr 23
Waning Crescent
Apr 29
New
May 6
First Quarter
May 14
Full
May 21
Last Quarter

Hourly Weather History & Observations

Time (MDT) Temp. Dew Point Humidity Pressure Visibility Wind Dir Wind Speed Gust Speed Precip Events Conditions
12:56 AM 75.7 °F 30.6 °F 19% 29.63 in 12.0 mi SSE 11.5 mph - N/A   Mostly Cloudy
1:56 AM 73.6 °F 31.1 °F 21% 29.64 in 12.0 mi East 12.7 mph - N/A   Mostly Cloudy
2:56 AM 72.9 °F 27.9 °F 19% 29.63 in 12.0 mi SE 9.2 mph - N/A   Partly Cloudy
3:56 AM 72.3 °F 22.1 °F 15% 29.62 in 12.0 mi South 12.7 mph - N/A   Partly Cloudy
4:56 AM 69.6 °F 23.7 °F 18% 29.65 in 12.0 mi South 9.2 mph - N/A   Mostly Cloudy
5:56 AM 68.4 °F 22.1 °F 17% 29.67 in 12.0 mi South 4.6 mph - N/A   Mostly Cloudy
6:56 AM 67.5 °F 21.6 °F 18% 29.69 in 12.0 mi ENE 3.5 mph - N/A   Partly Cloudy
7:56 AM 68.7 °F 22.3 °F 17% 29.70 in 12.0 mi ENE 12.7 mph 16.1 mph N/A   Clear
8:56 AM 71.4 °F 21.0 °F 15% 29.71 in 12.0 mi SSW 19.6 mph 26.5 mph N/A   Partly Cloudy
9:56 AM 72.3 °F 22.8 °F 16% 29.73 in 12.0 mi SSW 18.4 mph 27.6 mph N/A   Clear
10:56 AM 74.1 °F 22.5 °F 14% 29.70 in 12.0 mi SSW 24.2 mph 27.6 mph N/A   Partly Cloudy
11:56 AM 75.6 °F 21.4 °F 13% 29.66 in 12.0 mi SSW 20.7 mph 27.6 mph N/A   Partly Cloudy
12:07 PM 75.2 °F 21.2 °F 13% 29.87 in 12.0 mi SSE 16.1 mph 26.5 mph N/A   Clear
12:14 PM 77.0 °F 21.2 °F 12% 29.86 in 12.0 mi South 23.0 mph 29.9 mph N/A   Clear
12:26 PM 77.0 °F 21.2 °F 12% 29.86 in 12.0 mi SSW 19.6 mph 28.8 mph N/A   Partly Cloudy
12:36 PM 77.0 °F 19.4 °F 12% 29.86 in 12.0 mi SSE 25.3 mph 33.4 mph N/A   Clear
12:56 PM 76.6 °F 19.4 °F 12% 29.64 in 12.0 mi South 25.3 mph 35.7 mph N/A   Clear
1:14 PM 77.0 °F 19.4 °F 12% 29.83 in 12.0 mi SSW 32.2 mph 36.8 mph N/A   Partly Cloudy
1:57 PM 77.0 °F 19.4 °F 12% 29.83 in 12.0 mi SSE 21.9 mph 29.9 mph N/A   Partly Cloudy
2:22 PM 78.8 °F 19.4 °F 11% 29.82 in 12.0 mi South 18.4 mph 33.4 mph N/A   Clear
2:56 PM 79.2 °F 18.3 °F 10% 29.58 in 12.0 mi South 24.2 mph 40.3 mph N/A   Clear
2:57 PM 78.8 °F 17.6 °F 10% 29.79 in 12.0 mi SSW 25.3 mph 32.2 mph N/A   Clear
3:34 PM 80.6 °F 17.6 °F 10% 29.79 in 12.0 mi SE 16.1 mph 38.0 mph N/A   Clear
3:56 PM 80.6 °F 16.7 °F 9% 29.56 in 12.0 mi South 25.3 mph 35.7 mph N/A   Clear
4:03 PM 80.6 °F 17.6 °F 10% 29.76 in 12.0 mi SSW 21.9 mph 31.1 mph N/A   Clear
4:22 PM 80.6 °F 15.8 °F 9% 29.77 in 12.0 mi SSE 19.6 mph 32.2 mph N/A   Clear
4:34 PM 82.4 °F 15.8 °F 8% 29.75 in 12.0 mi SSW 23.0 mph 33.4 mph N/A   Clear
4:56 PM 81.5 °F 15.8 °F 9% 29.54 in 12.0 mi SW 23.0 mph 35.7 mph N/A   Clear
4:59 PM 80.6 °F 15.8 °F 9% 29.75 in 12.0 mi South 24.2 mph 33.4 mph N/A   Clear
5:56 PM 80.8 °F 17.8 °F 10% 29.52 in 12.0 mi South 34.5 mph 43.7 mph N/A   Clear
6:56 PM 79.5 °F 17.6 °F 10% 29.54 in 12.0 mi South 31.1 mph 42.6 mph N/A   Clear
7:56 PM 77.4 °F 17.1 °F 10% 29.57 in 12.0 mi SSW 25.3 mph 29.9 mph N/A   Clear
8:56 PM 74.7 °F 20.5 °F 13% 29.62 in 12.0 mi SW 20.7 mph 29.9 mph N/A   Clear
9:56 PM 72.3 °F 20.3 °F 14% 29.67 in 12.0 mi SW 16.1 mph 27.6 mph N/A   Clear
10:56 PM 69.8 °F 18.1 °F 14% 29.68 in 12.0 mi SSW 15.0 mph 25.3 mph N/A   Clear
11:56 PM 66.9 °F 16.7 °F 15% 29.72 in 12.0 mi South 9.2 mph - N/A   Clear